| time (UTC) | temp F | wind direction | speed MPH | gust MPH | rain 1hr in | rain 24hr in | rain mn in | humidity % | barometer mb |
| 20260905081737 | 63 | 223 | 0.0 | 0.0 | 0.00 | 0.01 | 0.00 | 89 | 1009.7 |
| 20260905080749 | 63 | 215 | 0.0 | 0.0 | 0.00 | 0.01 | 0.00 | 88 | 1009.7 |
| 20260905074559 | 65 | 215 | 0.0 | 0.0 | 0.00 | 0.04 | 0.00 | 84 | 1009.8 |
| 20260905073549 | 65 | 215 | 0.0 | 0.0 | 0.00 | 0.07 | 0.00 | 83 | 1009.7 |
| 20260905072549 | 66 | 240 | 0.0 | 0.0 | 0.00 | 0.13 | 0.00 | 82 | 1009.7 |
| 20260905071549 | 66 | 235 | 0.0 | 1.0 | 0.00 | 0.28 | 0.00 | 82 | 1009.7 |
| 20260905070610 | 66 | 233 | 0.0 | 1.0 | 0.00 | 0.29 | 0.00 | 81 | 1009.8 |
| 20260905065617 | 67 | 230 | 0.0 | 0.0 | 0.00 | 0.29 | 0.00 | 81 | 1009.8 |
| 20260905064553 | 67 | 212 | 0.0 | 3.0 | 0.00 | 0.29 | 0.00 | 81 | 1010.0 |
| 20260905063549 | 67 | 260 | 0.0 | 1.0 | 0.00 | 0.29 | 0.00 | 81 | 1009.9 |
| 20260905062536 | 66 | 246 | 0.0 | 4.0 | 0.00 | 0.29 | 0.00 | 82 | 1010.0 |
| 20260905061526 | 66 | 238 | 0.0 | 1.0 | 0.00 | 0.29 | 0.00 | 83 | 1010.1 |
| 20260905060546 | 66 | 219 | 0.0 | 2.0 | 0.00 | 0.29 | 0.00 | 83 | 1010.2 |
| 20260905055518 | 66 | 225 | 0.0 | 0.0 | 0.00 | 0.29 | 0.00 | 84 | 1010.3 |
| 20260905054514 | 65 | 246 | 0.0 | 1.0 | 0.00 | 0.29 | 0.00 | 84 | 1010.5 |
| 20260905053529 | 65 | 239 | 0.0 | 0.0 | 0.00 | 0.29 | 0.00 | 88 | 1010.6 |
| 20260905052548 | 64 | 252 | 0.0 | 1.0 | 0.00 | 0.29 | 0.00 | 89 | 1010.7 |
| 20260905051535 | 64 | 235 | 0.0 | 0.0 | 0.00 | 0.29 | 0.00 | 93 | 1010.9 |
| 20260905050541 | 64 | 235 | 0.0 | 0.0 | 0.00 | 0.29 | 0.00 | 93 | 1010.8 |
| 20260905044357 | 64 | 225 | 0.0 | 0.0 | 0.00 | 0.29 | 0.00 | 94 | 1011.0 |
| 20260905043417 | 64 | 225 | 0.0 | 0.0 | 0.00 | 0.29 | 0.00 | 94 | 1011.1 |
| 20260905042350 | 64 | 225 | 0.0 | 0.0 | 0.00 | 0.29 | 0.00 | 94 | 1011.1 |
| 20260905041403 | 64 | 225 | 0.0 | 0.0 | 0.00 | 0.29 | 0.00 | 94 | 1011.0 |
| 20260905040412 | 64 | 225 | 0.0 | 0.0 | 0.00 | 0.29 | 0.00 | 94 | 1011.1 |
| 20260905035343 | 64 | 225 | 0.0 | 0.0 | 0.00 | 0.29 | 0.28 | 94 | 1011.1 |
| 20260905034402 | 64 | 225 | 0.0 | 0.0 | 0.00 | 0.29 | 0.28 | 94 | 1011.2 |
| 20260905033334 | 64 | 225 | 0.0 | 0.0 | 0.00 | 0.29 | 0.28 | 94 | 1011.0 |
| 20260905032352 | 64 | 225 | 0.0 | 0.0 | 0.00 | 0.29 | 0.28 | 94 | 1011.0 |
| 20260905031406 | 65 | 225 | 0.0 | 0.0 | 0.00 | 0.29 | 0.28 | 94 | 1010.9 |
| 20260905030359 | 65 | 225 | 0.0 | 0.0 | 0.00 | 0.29 | 0.28 | 94 | 1010.9 |
| 20260905025422 | 65 | 225 | 0.0 | 0.0 | 0.00 | 0.29 | 0.28 | 93 | 1011.0 |
| 20260905023310 | 66 | 225 | 0.0 | 0.0 | 0.00 | 0.29 | 0.28 | 94 | 1010.8 |
| 20260905022257 | 66 | 225 | 0.0 | 0.0 | 0.00 | 0.29 | 0.28 | 94 | 1010.7 |
| 20260905021224 | 66 | 225 | 0.0 | 0.0 | 0.00 | 0.29 | 0.28 | 94 | 1010.7 |
| 20260905020201 | 66 | 225 | 0.0 | 0.0 | 0.00 | 0.29 | 0.28 | 94 | 1010.8 |
| 20260905015208 | 66 | 225 | 0.0 | 0.0 | 0.00 | 0.29 | 0.28 | 94 | 1010.7 |
| 20260905014224 | 66 | 225 | 0.0 | 0.0 | 0.00 | 0.29 | 0.28 | 93 | 1010.8 |
| 20260905013154 | 66 | 225 | 0.0 | 0.0 | 0.00 | 0.29 | 0.28 | 92 | 1010.9 |
| 20260905012136 | 66 | 225 | 0.0 | 0.0 | 0.00 | 0.29 | 0.28 | 92 | 1010.9 |
| 20260905011124 | 67 | 225 | 0.0 | 0.0 | 0.00 | 0.29 | 0.28 | 91 | 1010.8 |
| 20260905010138 | 67 | 225 | 0.0 | 0.0 | 0.00 | 0.29 | 0.28 | 91 | 1010.8 |
| 20260905004052 | 67 | 225 | 0.0 | 0.0 | 0.00 | 0.29 | 0.28 | 90 | 1010.8 |
| 20260905003034 | 68 | 225 | 0.0 | 0.0 | 0.00 | 0.29 | 0.28 | 90 | 1010.7 |
| 20260905002049 | 68 | 225 | 0.0 | 0.0 | 0.00 | 0.29 | 0.28 | 89 | 1010.7 |
| 20260905001104 | 69 | 225 | 0.0 | 0.0 | 0.00 | 0.29 | 0.28 | 89 | 1010.6 |
| 20260905000113 | 69 | 225 | 0.0 | 0.0 | 0.00 | 0.29 | 0.28 | 88 | 1010.6 |
| 20260904233945 | 70 | 225 | 0.0 | 0.0 | 0.00 | 0.29 | 0.28 | 86 | 1010.5 |
| 20260904232912 | 71 | 225 | 0.0 | 0.0 | 0.00 | 0.29 | 0.28 | 86 | 1010.3 |
| 20260904231845 | 71 | 225 | 0.0 | 0.0 | 0.00 | 0.29 | 0.28 | 86 | 1010.3 |
| 20260904230828 | 72 | 225 | 0.0 | 0.0 | 0.00 | 0.29 | 0.28 | 85 | 1010.2 |
| 20260904225826 | 72 | 225 | 0.0 | 0.0 | 0.00 | 0.29 | 0.28 | 86 | 1010.3 |
| 20260904223721 | 74 | 225 | 0.0 | 0.0 | 0.00 | 0.29 | 0.28 | 83 | 1010.4 |
| 20260904221545 | 76 | 225 | 0.0 | 0.0 | 0.00 | 0.29 | 0.28 | 77 | 1010.2 |
| 20260904220524 | 78 | 225 | 0.0 | 0.0 | 0.00 | 0.29 | 0.28 | 75 | 1010.1 |
| 20260904215505 | 80 | 225 | 0.0 | 0.0 | 0.00 | 0.29 | 0.28 | 70 | 1010.1 |
| 20260904214450 | 82 | 176 | 0.0 | 0.0 | 0.00 | 0.29 | 0.28 | 66 | 1010.2 |
| 20260904213435 | 81 | 165 | 0.0 | 0.0 | 0.00 | 0.29 | 0.28 | 67 | 1010.1 |
| 20260904212419 | 81 | 165 | 0.0 | 0.0 | 0.00 | 0.29 | 0.28 | 65 | 1010.1 |
| 20260904211354 | 81 | 219 | 0.0 | 0.0 | 0.00 | 0.29 | 0.28 | 65 | 1010.1 |
| 20260904210326 | 81 | 230 | 0.0 | 0.0 | 0.00 | 0.29 | 0.28 | 62 | 1010.1 |
| 20260904205255 | 81 | 227 | 0.0 | 0.0 | 0.00 | 0.29 | 0.28 | 64 | 1010.2 |
| 20260904204311 | 80 | 230 | 0.0 | 0.0 | 0.00 | 0.29 | 0.28 | 69 | 1010.3 |
| 20260904203330 | 80 | 230 | 0.0 | 0.0 | 0.00 | 0.29 | 0.28 | 64 | 1010.4 |
| 20260904202310 | 81 | 287 | 0.0 | 0.0 | 0.00 | 0.29 | 0.28 | 63 | 1010.4 |
| 20260904201331 | 82 | 212 | 0.0 | 0.0 | 0.00 | 0.29 | 0.28 | 60 | 1010.4 |
| 20260904200328 | 84 | 243 | 0.0 | 0.0 | 0.00 | 0.29 | 0.28 | 57 | 1010.4 |
| 20260904195353 | 83 | 255 | 0.0 | 2.0 | 0.00 | 0.29 | 0.28 | 60 | 1010.4 |
| 20260904194356 | 83 | 236 | 0.0 | 0.0 | 0.00 | 0.29 | 0.28 | 61 | 1010.4 |
| 20260904193342 | 83 | 319 | 0.0 | 5.0 | 0.00 | 0.29 | 0.28 | 57 | 1010.5 |
| 20260904192333 | 83 | 293 | 0.0 | 0.0 | 0.00 | 0.29 | 0.28 | 61 | 1010.5 |
| 20260904191311 | 82 | 239 | 1.0 | 9.0 | 0.00 | 0.29 | 0.28 | 58 | 1010.6 |
| 20260904190255 | 83 | 319 | 0.0 | 7.0 | 0.00 | 0.29 | 0.28 | 57 | 1010.9 |
| 20260904184055 | 83 | 224 | 0.0 | 2.0 | 0.00 | 0.29 | 0.28 | 58 | 1011.1 |
| 20260904183100 | 82 | 328 | 0.0 | 3.0 | 0.00 | 0.29 | 0.28 | 60 | 1011.1 |
| 20260904182048 | 83 | 330 | 0.0 | 3.0 | 0.00 | 0.29 | 0.28 | 63 | 1011.1 |
| 20260904181056 | 83 | 226 | 0.0 | 2.0 | 0.00 | 0.29 | 0.28 | 61 | 1011.1 |
| 20260904180033 | 82 | 266 | 1.0 | 5.0 | 0.00 | 0.29 | 0.28 | 61 | 1010.9 |
| 20260904175005 | 82 | 41 | 0.0 | 8.0 | 0.00 | 0.29 | 0.28 | 60 | 1011.2 |
| 20260904174024 | 82 | 212 | 0.0 | 9.0 | 0.00 | 0.29 | 0.28 | 60 | 1011.1 |
| 20260904173026 | 81 | 240 | 0.0 | 9.0 | 0.00 | 0.29 | 0.28 | 63 | 1011.0 |
| 20260904172041 | 80 | 165 | 0.0 | 9.0 | 0.00 | 0.29 | 0.28 | 62 | 1011.0 |
| 20260904171016 | 80 | 205 | 0.0 | 5.0 | 0.00 | 0.29 | 0.28 | 63 | 1011.1 |
| 20260904170003 | 81 | 149 | 1.0 | 3.0 | 0.00 | 0.29 | 0.28 | 66 | 1011.1 |
| 20260904163845 | 80 | 319 | 1.0 | 5.0 | 0.00 | 0.29 | 0.28 | 64 | 1011.2 |
| 20260904162826 | 81 | 208 | 0.0 | 3.0 | 0.00 | 0.29 | 0.28 | 63 | 1011.2 |
| 20260904161810 | 80 | 217 | 0.0 | 1.0 | 0.00 | 0.29 | 0.28 | 66 | 1011.3 |
| 20260904154508 | 78 | 57 | 0.0 | 9.0 | 0.00 | 0.29 | 0.28 | 69 | 1011.8 |
| 20260904153511 | 77 | 221 | 1.0 | 9.0 | 0.00 | 0.29 | 0.28 | 74 | 1011.8 |
| 20260904150216 | 77 | 229 | 0.0 | 9.0 | 0.00 | 0.29 | 0.28 | 83 | 1011.9 |
| 20260904145204 | 75 | 238 | 0.0 | 8.0 | 0.00 | 0.29 | 0.28 | 88 | 1011.9 |
| 20260904143053 | 74 | 245 | 0.0 | 4.0 | 0.00 | 0.29 | 0.28 | 90 | 1011.8 |
| 20260904142036 | 73 | 215 | 0.0 | 4.0 | 0.00 | 0.29 | 0.28 | 91 | 1011.8 |
| 20260904141024 | 73 | 235 | 0.0 | 4.0 | 0.00 | 0.29 | 0.28 | 93 | 1011.7 |
| 20260904140022 | 72 | 107 | 0.0 | 5.0 | 0.00 | 0.29 | 0.28 | 95 | 1011.7 |
| 20260904135019 | 72 | 220 | 0.0 | 5.0 | 0.00 | 0.29 | 0.28 | 96 | 1011.6 |
| 20260904134004 | 72 | 231 | 0.0 | 0.0 | 0.00 | 0.29 | 0.28 | 98 | 1011.5 |
| 20260904132944 | 71 | 245 | 0.0 | 5.0 | 0.00 | 0.29 | 0.28 | 98 | 1011.5 |
| 20260904131937 | 71 | 221 | 0.0 | 4.0 | 0.00 | 0.29 | 0.28 | 98 | 1011.6 |
| 20260904130950 | 71 | 229 | 0.0 | 4.0 | 0.00 | 0.29 | 0.28 | 99 | 1011.5 |
| 20260904125951 | 71 | 255 | 0.0 | 0.0 | 0.00 | 0.29 | 0.28 | 99 | 1011.6 |
| 20260904125012 | 71 | 215 | 0.0 | 4.0 | 0.00 | 0.29 | 0.28 | 99 | 1011.6 |
| 20260904124012 | 70 | 147 | 0.0 | 0.0 | 0.00 | 0.29 | 0.28 | 99 | 1011.4 |
| 20260904122947 | 70 | 193 | 0.0 | 0.0 | 0.00 | 0.29 | 0.28 | 99 | 1011.5 |
| 20260904121941 | 69 | 179 | 0.0 | 0.0 | 0.00 | 0.29 | 0.28 | 99 | 1011.5 |
| 20260904120917 | 69 | 179 | 0.0 | 0.0 | 0.00 | 0.29 | 0.28 | 99 | 1011.5 |
| 20260904114758 | 69 | 223 | 0.0 | 0.0 | 0.00 | 0.29 | 0.28 | 99 | 1011.6 |
| 20260904113803 | 69 | 154 | 0.0 | 0.0 | 0.00 | 0.29 | 0.28 | 99 | 1011.6 |
| 20260904112827 | 68 | 242 | 0.0 | 0.0 | 0.00 | 0.27 | 0.27 | 99 | 1011.4 |
| 20260904111824 | 68 | 246 | 0.0 | 0.0 | 0.00 | 0.27 | 0.27 | 98 | 1011.2 |
| 20260904105626 | 68 | 256 | 0.0 | 0.0 | 0.00 | 0.27 | 0.27 | 99 | 1011.1 |
| 20260904104557 | 68 | 219 | 0.0 | 0.0 | 0.00 | 0.27 | 0.27 | 98 | 1011.1 |
| 20260904103533 | 68 | 211 | 0.0 | 0.0 | 0.00 | 0.27 | 0.27 | 98 | 1010.9 |
| 20260904102511 | 68 | 211 | 0.0 | 0.0 | 0.00 | 0.27 | 0.27 | 98 | 1010.9 |
| 20260904101453 | 68 | 226 | 0.0 | 0.0 | 0.00 | 0.27 | 0.27 | 98 | 1010.7 |
| 20260904100423 | 68 | 226 | 0.0 | 0.0 | 0.00 | 0.27 | 0.27 | 98 | 1010.5 |
| 20260904095355 | 68 | 176 | 0.0 | 0.0 | 0.00 | 0.27 | 0.27 | 98 | 1010.4 |
| 20260904094355 | 69 | 176 | 0.0 | 0.0 | 0.00 | 0.27 | 0.27 | 98 | 1010.5 |
| 20260904093420 | 69 | 176 | 0.0 | 0.0 | 0.00 | 0.27 | 0.27 | 98 | 1010.5 |
| 20260904092406 | 69 | 176 | 0.0 | 0.0 | 0.00 | 0.27 | 0.27 | 98 | 1010.6 |
| 20260904091426 | 69 | 178 | 0.0 | 0.0 | 0.00 | 0.27 | 0.27 | 98 | 1010.4 |
| 20260904090409 | 69 | 178 | 0.0 | 0.0 | 0.00 | 0.27 | 0.27 | 98 | 1010.1 |
| 20260904085343 | 69 | 178 | 0.0 | 0.0 | 0.00 | 0.27 | 0.27 | 98 | 1010.2 |
| 20260904084325 | 69 | 178 | 0.0 | 0.0 | 0.00 | 0.27 | 0.27 | 98 | 1009.9 |
| 20260904083328 | 70 | 178 | 0.0 | 0.0 | 0.00 | 0.27 | 0.27 | 98 | 1009.9 |
| 20260904082332 | 70 | 178 | 0.0 | 0.0 | 0.00 | 0.27 | 0.27 | 98 | 1009.7 |